IR4UCA-3 Weather Reports


time (UTC)temp
C
wind
direction
speed
KPH
gust
KPH
rain 1hr
cm
rain 24hr
cm
rain mn
cm
humidity
%
barometer
mb
20260906104012 30 79 12.9 19.3 0.00 0.00 0.00 64 1021.3
20260906103757 30 45 9.7 17.7 0.00 0.00 0.00 64 1021.3
20260906103558 30 37 6.4 11.3 0.00 0.00 0.00 65 1021.2
20260906103353 30 63 4.8 11.3 0.00 0.00 0.00 65 1021.2
20260906103152 30 76 6.4 11.3 0.00 0.00 0.00 66 1021.2
20260906102956 29 80 3.2 8.0 0.00 0.00 0.00 67 1021.3
20260906102804 29 83 3.2 16.1 0.00 0.00 0.00 67 1021.3
20260906102558 29 16 0.0 16.1 0.00 0.00 0.00 67 1021.3
20260906102358 29 42 3.2 16.1 0.00 0.00 0.00 67 1021.3
20260906102155 29 166 4.8 16.1 0.00 0.00 0.00 67 1021.4
20260906101952 29 79 9.7 16.1 0.00 0.00 0.00 66 1021.4
20260906101747 29 83 4.8 11.3 0.00 0.00 0.00 67 1021.3
20260906101547 29 99 3.2 11.3 0.00 0.00 0.00 67 1021.4
20260906101340 29 42 4.8 11.3 0.00 0.00 0.00 67 1021.3
20260906101142 29 71 6.4 11.3 0.00 0.00 0.00 67 1021.3
20260906100941 29 41 6.4 11.3 0.00 0.00 0.00 68 1021.4
20260906100738 29 41 3.2 6.4 0.00 0.00 0.00 69 1021.4
20260906100539 29 31 1.6 9.7 0.00 0.00 0.00 69 1021.4
20260906100338 29 154 0.0 9.7 0.00 0.00 0.00 69 1021.4
20260906100139 28 154 0.0 9.7 0.00 0.00 0.00 70 1021.4
20260906095937 28 130 4.8 11.3 0.00 0.00 0.00 70 1021.4
20260906095735 28 63 6.4 16.1 0.00 0.00 0.00 70 1021.4
20260906095537 28 85 3.2 16.1 0.00 0.00 0.00 70 1021.5
20260906095335 28 48 6.4 16.1 0.00 0.00 0.00 70 1021.5
20260906095137 28 69 8.0 16.1 0.00 0.00 0.00 69 1021.4
20260906094934 29 61 8.0 16.1 0.00 0.00 0.00 69 1021.4
20260906094733 29 7 3.2 14.5 0.00 0.00 0.00 70 1021.5
20260906094534 28 0 6.4 14.5 0.00 0.00 0.00 71 1021.6
20260906094330 28 0 1.6 14.5 0.00 0.00 0.00 71 1021.5
20260906094130 28 158 0.0 9.7 0.00 0.00 0.00 72 1021.6
20260906093929 28 109 3.2 9.7 0.00 0.00 0.00 72 1021.5
20260906093728 28 85 6.4 9.7 0.00 0.00 0.00 73 1021.6
20260906093529 28 76 3.2 8.0 0.00 0.00 0.00 74 1021.6
20260906093336 28 0 3.2 8.0 0.00 0.00 0.00 75 1021.6
20260906093134 28 202 0.0 9.7 0.00 0.00 0.00 75 1021.6
20260906092930 27 1 3.2 11.3 0.00 0.00 0.00 75 1021.6
20260906092729 27 31 4.8 11.3 0.00 0.00 0.00 75 1021.6
20260906092531 27 73 4.8 11.3 0.00 0.00 0.00 75 1021.5
20260906092325 27 58 6.4 14.5 0.00 0.00 0.00 76 1021.6
20260906092123 27 54 4.8 14.5 0.00 0.00 0.00 76 1021.6
20260906091920 27 44 3.2 14.5 0.00 0.00 0.00 76 1021.5
20260906091719 27 78 8.0 14.5 0.00 0.00 0.00 76 1021.5
20260906091535 27 71 8.0 14.5 0.00 0.00 0.00 75 1021.6
20260906091316 27 16 3.2 11.3 0.00 0.00 0.00 76 1021.5
20260906091110 27 86 3.2 8.0 0.00 0.00 0.00 76 1021.5
20260906090910 27 0 1.6 11.3 0.00 0.00 0.00 76 1021.5
20260906090710 27 65 3.2 11.3 0.00 0.00 0.00 76 1021.6
20260906090519 27 47 3.2 11.3 0.00 0.00 0.00 77 1021.6
20260906090309 27 93 1.6 11.3 0.00 0.00 0.00 77 1021.6
20260906090125 27 68 6.4 11.3 0.00 0.00 0.00 77 1021.5
20260906085907 27 65 6.4 9.7 0.00 0.00 0.00 76 1021.5
20260906085705 27 35 1.6 9.7 0.00 0.00 0.00 76 1021.5
20260906085517 27 302 1.6 14.5 0.00 0.00 0.00 76 1021.5
20260906085306 27 0 1.6 14.5 0.00 0.00 0.00 76 1021.5
20260906085104 27 62 4.8 14.5 0.00 0.00 0.00 76 1021.5
20260906084904 27 48 8.0 14.5 0.00 0.00 0.00 74 1021.5
20260906084703 27 52 9.7 14.5 0.00 0.00 0.00 74 1021.5
20260906084516 27 76 3.2 8.0 0.00 0.00 0.00 74 1021.5
20260906084304 27 303 3.2 8.0 0.00 0.00 0.00 74 1021.5
20260906084102 27 275 3.2 8.0 0.00 0.00 0.00 75 1021.4
20260906083851 27 264 3.2 8.0 0.00 0.00 0.00 74 1021.5
20260906083650 27 296 3.2 8.0 0.00 0.00 0.00 74 1021.5
20260906083452 27 295 3.2 6.4 0.00 0.00 0.00 74 1021.5
20260906083250 27 295 1.6 6.4 0.00 0.00 0.00 74 1021.5
20260906083049 27 282 3.2 6.4 0.00 0.00 0.00 74 1021.5
20260906082849 27 275 1.6 6.4 0.00 0.00 0.00 75 1021.5
20260906082656 26 306 3.2 6.4 0.00 0.00 0.00 75 1021.6
20260906082453 26 351 3.2 6.4 0.00 0.00 0.00 75 1021.5
20260906082255 26 71 1.6 8.0 0.00 0.00 0.00 75 1021.5
20260906082054 26 69 4.8 9.7 0.00 0.00 0.00 75 1021.6
20260906081851 26 0 3.2 9.7 0.00 0.00 0.00 75 1021.5
20260906081645 26 0 3.2 9.7 0.00 0.00 0.00 74 1021.6
20260906081447 26 6 4.8 9.7 0.00 0.00 0.00 74 1021.5
20260906081249 26 353 4.8 9.7 0.00 0.00 0.00 74 1021.5
20260906081048 26 0 1.6 9.7 0.00 0.00 0.00 75 1021.5
20260906080847 26 289 3.2 9.7 0.00 0.00 0.00 75 1021.5
20260906080644 26 3 3.2 9.7 0.00 0.00 0.00 75 1021.4
20260906080445 26 14 6.4 11.3 0.00 0.00 0.00 74 1021.5
20260906080247 26 0 6.4 11.3 0.00 0.00 0.00 75 1021.4
20260906080116 26 0 1.6 11.3 0.00 0.00 0.00 74 1021.3
20260906075844 26 358 6.4 11.3 0.00 0.00 0.00 74 1021.3
20260906075644 26 0 4.8 11.3 0.00 0.00 0.00 74 1021.3
20260906075448 26 24 3.2 8.0 0.00 0.00 0.00 73 1021.3
20260906075244 25 4 3.2 8.0 0.00 0.00 0.00 73 1021.3
20260906075048 25 4 4.8 8.0 0.00 0.00 0.00 73 1021.4
20260906074842 25 0 4.8 8.0 0.00 0.00 0.00 74 1021.3
20260906074650 25 52 4.8 6.4 0.00 0.00 0.00 73 1021.3
20260906074449 25 293 0.0 3.2 0.00 0.00 0.00 73 1021.3
20260906074248 25 293 0.0 3.2 0.00 0.00 0.00 73 1021.2
20260906074047 25 293 1.6 3.2 0.00 0.00 0.00 73 1021.2
20260906073841 25 293 1.6 4.8 0.00 0.00 0.00 72 1021.3
20260906073639 24 293 0.0 6.4 0.00 0.00 0.00 73 1021.2
20260906073439 24 293 0.0 6.4 0.00 0.00 0.00 73 1021.2
20260906073238 24 293 1.6 6.4 0.00 0.00 0.00 73 1021.2
20260906073045 24 293 3.2 6.4 0.00 0.00 0.00 73 1021.2
20260906072839 24 293 3.2 6.4 0.00 0.00 0.00 73 1021.2
20260906072637 24 202 1.6 6.4 0.00 0.00 0.00 74 1021.2
20260906072437 23 204 1.6 6.4 0.00 0.00 0.00 74 1021.2
20260906072234 23 200 3.2 8.0 0.00 0.00 0.00 74 1021.2
20260906072041 23 200 3.2 8.0 0.00 0.00 0.00 74 1021.2
20260906071833 23 203 3.2 9.7 0.00 0.00 0.00 74 1021.2
20260906071632 23 214 4.8 9.7 0.00 0.00 0.00 74 1021.2
20260906071432 23 210 6.4 9.7 0.00 0.00 0.00 75 1021.2
20260906071232 23 213 6.4 9.7 0.00 0.00 0.00 75 1021.2
20260906071034 23 217 6.4 9.7 0.00 0.00 0.00 75 1021.1
20260906070833 23 231 8.0 9.7 0.00 0.00 0.00 74 1021.2
20260906070629 23 231 6.4 14.5 0.00 0.00 0.00 74 1021.1
20260906070429 23 212 3.2 14.5 0.00 0.00 0.00 75 1021.1
20260906070229 23 185 4.8 14.5 0.00 0.00 0.00 74 1021.1
20260906070051 23 230 6.4 14.5 0.00 0.00 0.00 74 1021.1
20260906065830 23 192 8.0 14.5 0.00 0.00 0.00 74 1021.0
20260906065636 23 233 8.0 14.5 0.00 0.00 0.00 74 1021.0
20260906065434 23 203 6.4 14.5 0.00 0.00 0.00 74 1021.0
20260906065232 23 175 6.4 14.5 0.00 0.00 0.00 75 1021.0
20260906065038 23 241 8.0 14.5 0.00 0.00 0.00 75 1021.0
20260906064827 23 238 6.4 14.5 0.00 0.00 0.00 75 1021.0
20260906064625 23 210 8.0 14.5 0.00 0.00 0.00 75 1021.0
20260906064425 23 227 6.4 9.7 0.00 0.00 0.00 75 1020.9
20260906064222 23 217 4.8 9.7 0.00 0.00 0.00 75 1021.0
20260906064038 23 197 6.4 9.7 0.00 0.00 0.00 75 1020.9
20260906063820 23 223 4.8 9.7 0.00 0.00 0.00 75 1020.9
20260906063619 22 214 8.0 9.7 0.00 0.00 0.00 74 1020.9
20260906063418 23 228 6.4 9.7 0.00 0.00 0.00 74 1020.9
20260906063218 23 234 4.8 9.7 0.00 0.00 0.00 74 1020.9
20260906063029 23 214 4.8 9.7 0.00 0.00 0.00 74 1020.8
20260906062817 23 228 4.8 9.7 0.00 0.00 0.00 74 1020.9
20260906062617 23 182 4.8 9.7 0.00 0.00 0.00 74 1020.8
20260906062416 23 217 4.8 9.7 0.00 0.00 0.00 74 1020.7
20260906062216 23 217 6.4 9.7 0.00 0.00 0.00 73 1020.7
20260906062024 23 214 4.8 8.0 0.00 0.00 0.00 73 1020.7
20260906061812 23 202 4.8 9.7 0.00 0.00 0.00 73 1020.7
20260906061613 23 228 4.8 9.7 0.00 0.00 0.00 73 1020.7
20260906061413 23 203 4.8 9.7 0.00 0.00 0.00 73 1020.7
20260906061212 23 217 4.8 9.7 0.00 0.00 0.00 74 1020.8
20260906061029 23 183 4.8 9.7 0.00 0.00 0.00 73 1020.6
20260906060835 23 203 4.8 9.7 0.00 0.00 0.00 73 1020.7
20260906060610 22 221 4.8 9.7 0.00 0.00 0.00 74 1020.6
20260906060409 22 197 6.4 9.7 0.00 0.00 0.00 74 1020.6
20260906060217 22 202 3.2 6.4 0.00 0.00 0.00 74 1020.6
20260906060041 22 202 3.2 6.4 0.00 0.00 0.00 74 1020.6
20260906055812 22 202 3.2 6.4 0.00 0.00 0.00 74 1020.5
20260906055610 22 202 3.2 6.4 0.00 0.00 0.00 74 1020.5
20260906055409 22 202 3.2 6.4 0.00 0.00 0.00 74 1020.5
20260906055209 22 202 3.2 6.4 0.00 0.00 0.00 74 1020.5
20260906055019 22 202 3.2 6.4 0.00 0.00 0.00 74 1020.5
20260906054806 22 202 4.8 6.4 0.00 0.00 0.00 74 1020.5
20260906054603 22 202 3.2 6.4 0.00 0.00 0.00 74 1020.5
20260906054403 22 202 3.2 6.4 0.00 0.00 0.00 74 1020.5
20260906054203 22 202 3.2 6.4 0.00 0.00 0.00 74 1020.4
20260906054012 22 202 3.2 8.0 0.00 0.00 0.00 74 1020.4
20260906053804 22 202 3.2 8.0 0.00 0.00 0.00 74 1020.5
20260906053600 22 202 3.2 8.0 0.00 0.00 0.00 74 1020.4
20260906053401 22 202 3.2 8.0 0.00 0.00 0.00 74 1020.3
20260906053159 22 200 3.2 8.0 0.00 0.00 0.00 75 1020.3
20260906052959 22 219 3.2 8.0 0.00 0.00 0.00 75 1020.3
20260906052759 22 186 3.2 8.0 0.00 0.00 0.00 75 1020.3
20260906052558 22 235 3.2 9.7 0.00 0.00 0.00 76 1020.4
20260906052358 22 219 3.2 9.7 0.00 0.00 0.00 76 1020.2
20260906052157 22 176 3.2 9.7 0.00 0.00 0.00 76 1020.3
20260906051957 22 219 3.2 9.7 0.00 0.00 0.00 76 1020.3
20260906051756 22 199 4.8 9.7 0.00 0.00 0.00 77 1020.3
20260906051556 22 210 3.2 8.0 0.00 0.00 0.00 77 1020.2
20260906051356 22 207 3.2 8.0 0.00 0.00 0.00 77 1020.2
20260906051154 22 217 3.2 8.0 0.00 0.00 0.00 77 1020.2
20260906051000 22 190 3.2 9.7 0.00 0.00 0.00 77 1020.2
20260906050757 22 185 3.2 14.5 0.00 0.00 0.00 77 1020.2
20260906050559 22 189 3.2 14.5 0.00 0.00 0.00 77 1020.1
20260906050359 22 231 4.8 14.5 0.00 0.00 0.00 76 1020.2
20260906050153 22 183 6.4 14.5 0.00 0.00 0.00 76 1020.2
20260906045954 22 221 4.8 14.5 0.00 0.00 0.00 76 1020.2
20260906045751 22 190 8.0 14.5 0.00 0.00 0.00 76 1020.2
20260906045551 22 199 6.4 14.5 0.00 0.00 0.00 75 1020.1
20260906045349 22 185 6.4 14.5 0.00 0.00 0.00 75 1020.1
20260906045148 22 193 8.0 14.5 0.00 0.00 0.00 74 1020.1
20260906044950 22 204 8.0 19.3 0.00 0.00 0.00 74 1020.1
20260906044747 22 213 6.4 19.3 0.00 0.00 0.00 73 1020.0
20260906044547 22 233 6.4 19.3 0.00 0.00 0.00 73 1020.0
20260906044347 22 173 6.4 19.3 0.00 0.00 0.00 73 1020.0
20260906044147 22 186 8.0 19.3 0.00 0.00 0.00 73 1020.0
20260906043950 23 219 6.4 14.5 0.00 0.00 0.00 73 1020.0
20260906043745 22 203 6.4 14.5 0.00 0.00 0.00 73 1020.0
20260906043543 23 212 4.8 14.5 0.00 0.00 0.00 74 1019.9
20260906043342 22 202 6.4 14.5 0.00 0.00 0.00 74 1019.9
20260906043141 22 196 6.4 14.5 0.00 0.00 0.00 74 1019.9
20260906042941 22 247 4.8 9.7 0.00 0.00 0.00 75 1019.9
20260906042741 22 216 6.4 9.7 0.00 0.00 0.00 75 1019.8
20260906042542 22 216 3.2 9.7 0.00 0.00 0.00 75 1019.8
20260906042339 22 183 4.8 9.7 0.00 0.00 0.00 76 1019.7
20260906042148 22 147 4.8 9.7 0.00 0.00 0.00 76 1019.8
20260906041943 22 202 4.8 11.3 0.00 0.00 0.00 76 1019.8
20260906041745 22 220 4.8 11.3 0.00 0.00 0.00 76 1019.8
20260906041542 22 173 4.8 11.3 0.00 0.00 0.00 77 1019.7
20260906041339 22 189 6.4 11.3 0.00 0.00 0.00 77 1019.7
20260906041138 22 203 6.4 11.3 0.00 0.00 0.00 77 1019.7
20260906040936 22 223 4.8 9.7 0.00 0.00 0.00 77 1019.7
20260906040737 22 193 4.8 9.7 0.00 0.00 0.00 77 1019.7
20260906040535 22 164 3.2 8.0 0.00 0.00 0.00 77 1019.6
20260906040332 22 178 3.2 8.0 0.00 0.00 0.00 77 1019.7
20260906040133 22 209 3.2 8.0 0.00 0.00 0.00 77 1019.6
20260906035929 22 182 3.2 8.0 0.00 0.00 0.00 77 1019.6
20260906035732 22 214 4.8 8.0 0.00 0.00 0.00 77 1019.5
20260906035531 22 196 4.8 8.0 0.00 0.00 0.00 77 1019.6
20260906035332 22 202 4.8 8.0 0.00 0.00 0.00 77 1019.6
20260906035130 22 221 4.8 8.0 0.00 0.00 0.00 77 1019.6
20260906034929 22 223 3.2 8.0 0.00 0.00 0.00 77 1019.5
20260906034732 22 224 4.8 8.0 0.00 0.00 0.00 77 1019.6
20260906034529 22 199 4.8 9.7 0.00 0.00 0.00 77 1019.5
20260906034329 22 190 4.8 9.7 0.00 0.00 0.00 76 1019.4
20260906034129 22 231 4.8 11.3 0.00 0.00 0.00 76 1019.4
20260906033929 22 195 4.8 11.3 0.00 0.00 0.00 76 1019.4
20260906033731 22 192 4.8 11.3 0.00 0.00 0.00 76 1019.4
20260906033528 22 188 4.8 11.3 0.00 0.00 0.00 76 1019.4
20260906033329 22 214 4.8 11.3 0.00 0.00 0.00 75 1019.4
20260906033134 22 183 4.8 8.0 0.00 0.00 0.00 75 1019.3
20260906032931 22 224 4.8 8.0 0.00 0.00 0.00 75 1019.3
20260906032732 23 204 1.6 8.0 0.00 0.00 0.00 75 1019.4
20260906032519 23 164 4.8 8.0 0.00 0.00 0.00 75 1019.3
20260906032322 23 193 3.2 6.4 0.00 0.00 0.00 74 1019.3
20260906032120 23 193 3.2 6.4 0.00 0.00 0.00 74 1019.3
20260906031917 23 193 3.2 6.4 0.00 0.00 0.00 74 1019.2
20260906031718 23 193 1.6 3.2 0.00 0.00 0.00 74 1019.2
20260906031525 23 193 0.0 3.2 0.00 0.00 0.00 74 1019.3
20260906031315 23 193 0.0 3.2 0.00 0.00 0.00 74 1019.3
20260906031113 23 193 0.0 3.2 0.00 0.00 0.00 74 1019.3
20260906030913 23 193 0.0 3.2 0.00 0.00 0.00 74 1019.4
20260906030710 23 193 0.0 3.2 0.00 0.00 0.00 74 1019.3
20260906030517 23 193 0.0 3.2 0.00 0.00 0.00 74 1019.3
20260906030310 23 193 1.6 3.2 0.00 0.00 0.00 74 1019.3
20260906030106 23 193 0.0 1.6 0.00 0.00 0.00 74 1019.2
20260906025906 23 193 0.0 0.0 0.00 0.00 0.00 74 1019.2
20260906025706 23 193 0.0 0.0 0.00 0.00 0.00 73 1019.2
20260906025515 23 193 0.0 1.6 0.00 0.00 0.00 73 1019.3
20260906025306 23 193 0.0 1.6 0.00 0.00 0.00 73 1019.2
20260906025105 23 193 0.0 1.6 0.00 0.00 0.00 73 1019.3
20260906024903 23 193 0.0 1.6 0.00 0.00 0.00 73 1019.3
20260906024703 23 193 0.0 3.2 0.00 0.00 0.00 73 1019.2
20260906024503 23 193 0.0 3.2 0.00 0.00 0.00 73 1019.2
20260906024306 23 193 0.0 3.2 0.00 0.00 0.00 73 1019.2
20260906024107 23 193 1.6 3.2 0.00 0.00 0.00 73 1019.2
20260906023906 23 193 1.6 3.2 0.00 0.00 0.00 72 1019.2
20260906023704 23 193 0.0 4.8 0.00 0.00 0.00 72 1019.2
20260906023514 23 193 1.6 8.0 0.00 0.00 0.00 72 1019.2
20260906023308 23 193 1.6 8.0 0.00 0.00 0.00 72 1019.0
20260906023105 23 193 1.6 9.7 0.00 0.00 0.00 72 1019.1
20260906022903 23 193 1.6 9.7 0.00 0.00 0.00 72 1019.1
20260906022700 23 213 3.2 9.7 0.00 0.00 0.00 72 1019.1
20260906022458 23 180 3.2 9.7 0.00 0.00 0.00 72 1019.0
20260906022300 24 199 6.4 14.5 0.00 0.00 0.00 71 1018.9
20260906022059 24 234 8.0 14.5 0.00 0.00 0.00 71 1018.9
20260906021858 24 228 6.4 14.5 0.00 0.00 0.00 70 1018.9
20260906021656 24 227 3.2 14.5 0.00 0.00 0.00 70 1018.8
20260906021456 24 220 8.0 14.5 0.00 0.00 0.00 70 1018.8
20260906021256 24 223 4.8 14.5 0.00 0.00 0.00 70 1018.8
20260906021056 24 200 4.8 11.3 0.00 0.00 0.00 70 1018.7
20260906020856 24 158 6.4 11.3 0.00 0.00 0.00 70 1018.7
20260906020654 24 183 4.8 11.3 0.00 0.00 0.00 70 1018.7
20260906020454 24 224 3.2 11.3 0.00 0.00 0.00 70 1018.8
20260906020254 24 212 3.2 11.3 0.00 0.00 0.00 70 1018.7
20260906020105 24 196 3.2 11.3 0.00 0.00 0.00 70 1018.7
20260906015851 24 224 6.4 11.3 0.00 0.00 0.00 70 1018.6
20260906015650 24 226 6.4 14.5 0.00 0.00 0.00 70 1018.7
20260906015449 24 193 3.2 14.5 0.00 0.00 0.00 70 1018.6
20260906015249 24 180 3.2 14.5 0.00 0.00 0.00 70 1018.6
20260906015048 24 202 3.2 14.5 0.00 0.00 0.00 70 1018.6
20260906014849 24 210 6.4 14.5 0.00 0.00 0.00 70 1018.6
20260906014649 24 244 8.0 19.3 0.00 0.00 0.00 70 1018.6
20260906014448 24 175 6.4 19.3 0.00 0.00 0.00 70 1018.5
20260906014246 24 199 4.8 19.3 0.00 0.00 0.00 70 1018.5
20260906014058 24 176 4.8 19.3 0.00 0.00 0.00 70 1018.5
20260906013855 24 188 8.0 19.3 0.00 0.00 0.00 70 1018.5
20260906013655 24 247 6.4 11.3 0.00 0.00 0.00 70 1018.4
20260906013450 24 223 4.8 14.5 0.00 0.00 0.00 70 1018.4
20260906013250 24 227 4.8 17.7 0.00 0.00 0.00 70 1018.4
20260906013049 24 214 6.4 17.7 0.00 0.00 0.00 70 1018.4
20260906012846 24 226 6.4 17.7 0.00 0.00 0.00 70 1018.5
20260906012649 24 192 6.4 17.7 0.00 0.00 0.00 70 1018.5
20260906012434 24 223 8.0 17.7 0.00 0.00 0.00 70 1018.4
20260906012235 24 216 9.7 17.7 0.00 0.00 0.00 69 1018.5
20260906012035 25 244 9.7 17.7 0.00 0.00 0.00 69 1018.4
20260906011833 25 152 9.7 16.1 0.00 0.00 0.00 69 1018.4
20260906011633 25 202 8.0 16.1 0.00 0.00 0.00 69 1018.5
20260906011433 25 199 8.0 16.1 0.00 0.00 0.00 69 1018.4
20260906011234 25 180 6.4 14.5 0.00 0.00 0.00 69 1018.5
20260906011034 25 210 6.4 14.5 0.00 0.00 0.00 69 1018.5
20260906010831 25 212 6.4 14.5 0.00 0.00 0.00 69 1018.5
20260906010631 25 212 3.2 11.3 0.00 0.00 0.00 69 1018.4
20260906010430 25 213 6.4 11.3 0.00 0.00 0.00 69 1018.4
20260906010229 25 210 3.2 11.3 0.00 0.00 0.00 69 1018.5
20260906010046 25 185 3.2 11.3 0.00 0.00 0.00 69 1018.5
20260906005831 25 223 8.0 11.3 0.00 0.00 0.00 69 1018.4
20260906005629 25 178 3.2 11.3 0.00 0.00 0.00 69 1018.4
20260906005429 25 192 3.2 11.3 0.00 0.00 0.00 69 1018.5
20260906005240 25 206 4.8 11.3 0.00 0.00 0.00 68 1018.4
20260906005033 25 200 3.2 8.0 0.00 0.00 0.00 68 1018.4
20260906004830 25 197 4.8 8.0 0.00 0.00 0.00 68 1018.4
20260906004628 25 213 3.2 8.0 0.00 0.00 0.00 68 1018.4
20260906004426 25 190 3.2 8.0 0.00 0.00 0.00 68 1018.4
20260906004228 25 195 1.6 8.0 0.00 0.00 0.00 68 1018.4
20260906004029 25 162 3.2 8.0 0.00 0.00 0.00 68 1018.4
20260906003825 25 213 3.2 6.4 0.00 0.00 0.00 67 1018.3
20260906003625 25 202 1.6 6.4 0.00 0.00 0.00 67 1018.4
20260906003424 25 231 1.6 4.8 0.00 0.00 0.00 67 1018.3
20260906003226 25 231 0.0 3.2 0.00 0.00 0.00 67 1018.3
20260906003023 25 231 0.0 1.6 0.00 0.00 0.00 66 1018.4
20260906002817 25 231 0.0 0.0 0.00 0.00 0.00 66 1018.4
20260906002617 25 231 0.0 0.0 0.00 0.00 0.00 65 1018.3
20260906002420 25 231 0.0 0.0 0.00 0.00 0.00 65 1018.3
20260906002220 25 231 0.0 0.0 0.00 0.00 0.00 65 1018.3
20260906002019 25 231 0.0 0.0 0.00 0.00 0.00 65 1018.3
20260906001812 25 231 0.0 0.0 0.00 0.00 0.00 65 1018.3
20260906001612 25 231 0.0 1.6 0.00 0.00 0.00 65 1018.3
20260906001414 26 231 0.0 3.2 0.00 0.00 0.00 66 1018.3
20260906001216 26 231 0.0 3.2 0.00 0.00 0.00 66 1018.2
20260906001016 26 231 0.0 3.2 0.00 0.00 0.00 66 1018.2
20260906000814 26 231 0.0 3.2 0.00 0.00 0.00 66 1018.3
20260906000612 26 231 1.6 3.2 0.00 0.00 0.00 66 1018.3
20260906000411 26 231 0.0 3.2 0.00 0.00 0.00 66 1018.3
20260906000214 26 231 0.0 3.2 0.00 0.00 0.00 66 1018.3
20260906000040 26 231 0.0 3.2 0.00 0.00 0.00 66 1018.3
20260905235813 26 231 0.0 4.8 0.00 0.00 0.00 66 1018.3
20260905235614 26 231 1.6 4.8 0.00 0.00 0.00 66 1018.3
20260905235409 26 231 0.0 4.8 0.00 0.00 0.00 65 1018.2
20260905235213 26 231 1.6 8.0 0.00 0.00 0.00 65 1018.3
20260905235018 26 231 1.6 9.7 0.00 0.00 0.00 65 1018.2
20260905234804 26 231 1.6 9.7 0.00 0.00 0.00 65 1018.2
20260905234603 26 231 1.6 14.5 0.00 0.00 0.00 65 1018.2
20260905234407 26 195 3.2 14.5 0.00 0.00 0.00 65 1018.1
20260905234209 26 230 4.8 14.5 0.00 0.00 0.00 65 1018.1
20260905234016 26 226 3.2 14.5 0.00 0.00 0.00 65 1018.1
20260905233801 26 169 3.2 14.5 0.00 0.00 0.00 65 1018.1
20260905233604 26 195 3.2 14.5 0.00 0.00 0.00 65 1018.0
20260905233409 26 212 4.8 14.5 0.00 0.00 0.00 65 1018.1
20260905233205 26 168 6.4 14.5 0.00 0.00 0.00 65 1018.0
20260905233017 26 244 6.4 11.3 0.00 0.00 0.00 65 1018.0
20260905232802 26 250 6.4 14.5 0.00 0.00 0.00 65 1018.1
20260905232603 26 220 6.4 16.1 0.00 0.00 0.00 65 1018.0
20260905232403 26 220 8.0 16.1 0.00 0.00 0.00 64 1018.0
20260905232203 26 237 6.4 16.1 0.00 0.00 0.00 64 1017.9
20260905232009 26 241 8.0 16.1 0.00 0.00 0.00 64 1017.9
20260905231804 26 219 8.0 16.1 0.00 0.00 0.00 64 1018.0
20260905231605 26 272 3.2 9.7 0.00 0.00 0.00 63 1018.0
20260905231408 26 238 1.6 9.7 0.00 0.00 0.00 63 1018.0
20260905231205 26 245 0.0 9.7 0.00 0.00 0.00 63 1017.9
20260905231002 26 190 6.4 9.7 0.00 0.00 0.00 63 1017.9
20260905230759 26 224 4.8 8.0 0.00 0.00 0.00 62 1017.9
20260905230556 26 179 1.6 6.4 0.00 0.00 0.00 62 1018.0
20260905230357 26 169 3.2 6.4 0.00 0.00 0.00 62 1018.0
20260905230156 26 186 1.6 9.7 0.00 0.00 0.00 62 1017.9
20260905225958 26 186 0.0 9.7 0.00 0.00 0.00 61 1017.9
20260905225756 26 186 0.0 9.7 0.00 0.00 0.00 62 1017.9
20260905225556 26 186 0.0 9.7 0.00 0.00 0.00 62 1017.8
20260905225354 26 186 3.2 9.7 0.00 0.00 0.00 62 1017.8
20260905225155 26 165 1.6 9.7 0.00 0.00 0.00 62 1017.9
20260905224954 26 120 3.2 9.7 0.00 0.00 0.00 61 1017.9
20260905224753 26 144 0.0 4.8 0.00 0.00 0.00 61 1017.9
20260905224555 26 144 0.0 4.8 0.00 0.00 0.00 61 1017.8
20260905224352 26 144 0.0 1.6 0.00 0.00 0.00 61 1017.8
20260905224152 26 144 0.0 4.8 0.00 0.00 0.00 61 1017.7
20260905223950 26 144 0.0 9.7 0.00 0.00 0.00 61 1017.8
20260905223749 27 144 0.0 9.7 0.00 0.00 0.00 61 1017.8
20260905223554 27 144 0.0 9.7 0.00 0.00 0.00 61 1017.8
20260905223347 27 144 1.6 9.7 0.00 0.00 0.00 61 1017.8
20260905223148 27 213 4.8 9.7 0.00 0.00 0.00 61 1017.7
20260905222948 27 220 4.8 9.7 0.00 0.00 0.00 60 1017.7
20260905222747 27 183 3.2 9.7 0.00 0.00 0.00 60 1017.7
20260905222549 27 227 4.8 9.7 0.00 0.00 0.00 60 1017.6
20260905222346 27 169 1.6 6.4 0.00 0.00 0.00 60 1017.7
20260905222155 27 248 1.6 6.4 0.00 0.00 0.00 59 1017.6
20260905221955 27 248 1.6 6.4 0.00 0.00 0.00 59 1017.6
20260905221749 27 248 1.6 6.4 0.00 0.00 0.00 59 1017.6
20260905221548 27 266 1.6 4.8 0.00 0.00 0.00 59 1017.6
20260905221345 27 336 0.0 3.2 0.00 0.00 0.00 58 1017.5
20260905221148 27 336 0.0 3.2 0.00 0.00 0.00 58 1017.5
20260905220948 27 336 0.0 1.6 0.00 0.00 0.00 58 1017.5
20260905220745 27 336 0.0 1.6 0.00 0.00 0.00 57 1017.4
20260905220544 28 336 0.0 1.6 0.00 0.00 0.00 57 1017.4
20260905220344 28 336 0.0 3.2 0.00 0.00 0.00 57 1017.4
20260905220144 28 336 0.0 3.2 0.00 0.00 0.00 57 1017.4
20260905215946 28 336 0.0 3.2 0.00 0.00 0.00 57 1017.4
20260905215746 28 336 0.0 6.4 0.00 0.00 0.00 57 1017.3
20260905215546 28 336 1.6 6.4 0.00 0.00 0.00 57 1017.3
20260905215348 28 0 0.0 6.4 0.00 0.00 0.00 57 1017.3
20260905215148 28 0 0.0 6.4 0.00 0.00 0.00 57 1017.3
20260905214947 28 0 4.8 9.7 0.00 0.00 0.00 57 1017.3
20260905214746 28 0 3.2 14.5 0.00 0.00 0.00 57 1017.3
20260905214546 28 4 1.6 20.9 0.00 0.00 0.00 57 1017.3
20260905214345 28 7 3.2 20.9 0.00 0.00 0.00 57 1017.2
20260905214154 28 18 3.2 20.9 0.00 0.00 0.00 57 1017.2
20260905213951 28 230 8.0 20.9 0.00 0.00 0.00 56 1017.1
20260905213745 28 185 9.7 20.9 0.00 0.00 0.00 56 1016.9
20260905213547 28 204 9.7 17.7 0.00 0.00 0.00 56 1016.9
20260905213347 28 175 11.3 19.3 0.00 0.00 0.00 55 1016.8
20260905213146 28 206 8.0 22.5 0.00 0.00 0.00 55 1016.9
20260905212947 28 202 9.7 22.5 0.00 0.00 0.00 55 1016.8
20260905212746 28 238 9.7 25.7 0.00 0.00 0.00 55 1016.9
20260905212544 28 210 12.9 25.7 0.00 0.00 0.00 54 1016.8
20260905212348 28 179 12.9 25.7 0.00 0.00 0.00 54 1016.8
20260905212144 28 237 8.0 25.7 0.00 0.00 0.00 54 1016.7
20260905211945 28 179 11.3 25.7 0.00 0.00 0.00 54 1016.8
20260905211745 28 207 11.3 24.1 0.00 0.00 0.00 54 1016.7
20260905211547 28 214 11.3 24.1 0.00 0.00 0.00 54 1016.8
20260905211345 28 180 11.3 24.1 0.00 0.00 0.00 54 1016.7
20260905211145 28 175 11.3 29.0 0.00 0.00 0.00 54 1016.8
20260905210946 28 204 11.3 29.0 0.00 0.00 0.00 54 1016.7
20260905210745 28 185 12.9 29.0 0.00 0.00 0.00 54 1016.7
20260905210544 28 169 9.7 29.0 0.00 0.00 0.00 54 1016.7
20260905210352 28 144 16.1 29.0 0.00 0.00 0.00 54 1016.6
20260905210150 28 188 11.3 22.5 0.00 0.00 0.00 54 1016.7
20260905205949 28 221 9.7 22.5 0.00 0.00 0.00 54 1016.6
20260905205747 28 175 9.7 22.5 0.00 0.00 0.00 54 1016.7
20260905205549 28 182 11.3 22.5 0.00 0.00 0.00 54 1016.6
20260905205347 28 228 11.3 22.5 0.00 0.00 0.00 54 1016.6
20260905205145 28 216 12.9 22.5 0.00 0.00 0.00 54 1016.6
20260905204945 28 131 12.9 22.5 0.00 0.00 0.00 54 1016.6
20260905204744 28 152 9.7 22.5 0.00 0.00 0.00 54 1016.6
20260905204546 28 193 11.3 22.5 0.00 0.00 0.00 53 1016.7
20260905204346 28 214 9.7 22.5 0.00 0.00 0.00 53 1016.6
20260905204148 28 190 9.7 22.5 0.00 0.00 0.00 53 1016.7
20260905203945 28 159 11.3 22.5 0.00 0.00 0.00 53 1016.6
20260905203745 29 166 11.3 20.9 0.00 0.00 0.00 53 1016.6
20260905203545 29 195 9.7 20.9 0.00 0.00 0.00 53 1016.6
20260905203345 29 220 11.3 22.5 0.00 0.00 0.00 52 1016.6
20260905203146 29 200 12.9 22.5 0.00 0.00 0.00 52 1016.6
20260905202945 29 219 11.3 22.5 0.00 0.00 0.00 52 1016.5
20260905202747 29 188 11.3 22.5 0.00 0.00 0.00 52 1016.5
20260905202546 29 217 12.9 22.5 0.00 0.00 0.00 52 1016.5
20260905202346 29 212 11.3 20.9 0.00 0.00 0.00 52 1016.4
20260905202153 29 220 11.3 20.9 0.00 0.00 0.00 52 1016.5
20260905201951 29 169 11.3 20.9 0.00 0.00 0.00 52 1016.6
20260905201807 30 210 9.7 22.5 0.00 0.00 0.00 51 1016.5
20260905201547 30 217 12.9 29.0 0.00 0.00 0.00 51 1016.5
20260905201345 30 179 9.7 29.0 0.00 0.00 0.00 51 1016.5
20260905201145 30 212 9.7 29.0 0.00 0.00 0.00 51 1016.5
20260905200951 30 178 12.9 29.0 0.00 0.00 0.00 51 1016.5
20260905200744 30 213 9.7 29.0 0.00 0.00 0.00 51 1016.4
20260905200545 30 189 8.0 24.1 0.00 0.00 0.00 51 1016.6
20260905200345 30 235 9.7 24.1 0.00 0.00 0.00 51 1016.5
20260905200144 30 155 11.3 24.1 0.00 0.00 0.00 51 1016.6
20260905195947 30 189 11.3 24.1 0.00 0.00 0.00 51 1016.5
20260905195745 30 281 9.7 20.9 0.00 0.00 0.00 51 1016.6
20260905195545 30 272 8.0 19.3 0.00 0.00 0.00 51 1016.6
20260905195344 30 176 6.4 19.3 0.00 0.00 0.00 51 1016.5
20260905195148 30 175 9.7 19.3 0.00 0.00 0.00 51 1016.4
20260905194946 30 252 9.7 19.3 0.00 0.00 0.00 51 1016.6
20260905194744 30 157 9.7 19.3 0.00 0.00 0.00 50 1016.4
20260905194542 30 233 8.0 19.3 0.00 0.00 0.00 50 1016.5
20260905194345 30 204 6.4 20.9 0.00 0.00 0.00 50 1016.4
20260905194143 30 176 8.0 20.9 0.00 0.00 0.00 50 1016.4
20260905193942 30 200 6.4 20.9 0.00 0.00 0.00 50 1016.4
20260905193746 30 148 8.0 20.9 0.00 0.00 0.00 50 1016.4
20260905193543 30 145 8.0 20.9 0.00 0.00 0.00 50 1016.3
20260905193341 30 125 9.7 20.9 0.00 0.00 0.00 50 1016.3
20260905193138 30 164 4.8 20.9 0.00 0.00 0.00 50 1016.3
20260905192940 30 210 8.0 20.9 0.00 0.00 0.00 50 1016.4
20260905192736 30 176 8.0 20.9 0.00 0.00 0.00 50 1016.3
20260905192537 30 141 8.0 22.5 0.00 0.00 0.00 49 1016.3
20260905192334 30 185 4.8 22.5 0.00 0.00 0.00 49 1016.2
20260905192133 30 135 8.0 22.5 0.00 0.00 0.00 49 1016.3
20260905191934 30 202 6.4 22.5 0.00 0.00 0.00 49 1016.2
20260905191732 30 238 9.7 22.5 0.00 0.00 0.00 49 1016.2
20260905191532 30 209 8.0 17.7 0.00 0.00 0.00 49 1016.2
20260905191332 30 207 8.0 16.1 0.00 0.00 0.00 49 1016.1
20260905191132 30 220 8.0 17.7 0.00 0.00 0.00 49 1016.2
20260905190931 30 206 8.0 22.5 0.00 0.00 0.00 49 1016.1
20260905190731 30 192 9.7 22.5 0.00 0.00 0.00 49 1016.1
20260905190530 30 121 8.0 22.5 0.00 0.00 0.00 49 1016.0
20260905190329 30 157 8.0 22.5 0.00 0.00 0.00 49 1016.1
20260905190129 31 219 9.7 22.5 0.00 0.00 0.00 49 1016.0
20260905185926 31 164 8.0 20.9 0.00 0.00 0.00 49 1016.1
20260905185725 31 206 9.7 20.9 0.00 0.00 0.00 49 1016.0
20260905185527 31 216 6.4 16.1 0.00 0.00 0.00 49 1016.0
20260905185325 31 196 4.8 19.3 0.00 0.00 0.00 49 1015.9
20260905185125 31 220 4.8 19.3 0.00 0.00 0.00 48 1016.0
20260905184923 31 171 6.4 19.3 0.00 0.00 0.00 48 1015.9
20260905184725 31 241 6.4 19.3 0.00 0.00 0.00 48 1015.8
20260905184530 31 87 9.7 19.3 0.00 0.00 0.00 48 1015.8
20260905184327 31 183 9.7 17.7 0.00 0.00 0.00 48 1015.8
20260905184125 31 217 6.4 17.7 0.00 0.00 0.00 48 1015.7
20260905183926 31 189 6.4 17.7 0.00 0.00 0.00 48 1015.8
20260905183722 31 227 6.4 17.7 0.00 0.00 0.00 48 1015.7
20260905183531 31 227 8.0 16.1 0.00 0.00 0.00 48 1015.7
20260905183320 31 206 6.4 16.1 0.00 0.00 0.00 48 1015.7
20260905183121 31 162 3.2 16.1 0.00 0.00 0.00 48 1015.7
20260905182920 31 180 4.8 16.1 0.00 0.00 0.00 48 1015.6
20260905182719 31 145 4.8 16.1 0.00 0.00 0.00 48 1015.5
20260905182522 31 157 6.4 16.1 0.00 0.00 0.00 48 1015.5
20260905182316 31 269 8.0 16.1 0.00 0.00 0.00 48 1015.5
20260905182115 31 233 8.0 14.5 0.00 0.00 0.00 48 1015.5
20260905181917 31 212 6.4 14.5 0.00 0.00 0.00 48 1015.5
20260905181714 31 152 6.4 14.5 0.00 0.00 0.00 48 1015.5
20260905181517 31 145 4.8 14.5 0.00 0.00 0.00 48 1015.5
20260905181313 31 171 1.6 17.7 0.00 0.00 0.00 48 1015.4
20260905181113 32 100 4.8 17.7 0.00 0.00 0.00 48 1015.3
20260905180913 32 172 3.2 17.7 0.00 0.00 0.00 48 1015.3
20260905180714 32 182 4.8 17.7 0.00 0.00 0.00 48 1015.2
20260905180520 32 193 4.8 17.7 0.00 0.00 0.00 48 1015.3
20260905180313 32 168 3.2 14.5 0.00 0.00 0.00 48 1015.3
20260905180113 32 178 1.6 8.0 0.00 0.00 0.00 48 1015.3
20260905175911 32 138 1.6 8.0 0.00 0.00 0.00 47 1015.3
20260905175717 32 204 3.2 14.5 0.00 0.00 0.00 47 1015.3
20260905175524 32 193 3.2 20.9 0.00 0.00 0.00 47 1015.4
20260905175316 32 210 0.0 24.1 0.00 0.00 0.00 47 1015.3
20260905175114 32 80 4.8 24.1 0.00 0.00 0.00 47 1015.3
20260905174910 32 200 8.0 24.1 0.00 0.00 0.00 47 1015.3
20260905174707 32 197 9.7 24.1 0.00 0.00 0.00 47 1015.3
20260905174513 32 193 9.7 24.1 0.00 0.00 0.00 47 1015.2
20260905174303 32 237 8.0 22.5 0.00 0.00 0.00 47 1015.2
20260905174105 32 162 6.4 22.5 0.00 0.00 0.00 47 1015.2
20260905173910 32 203 8.0 22.5 0.00 0.00 0.00 47 1015.2
20260905173704 32 148 11.3 22.5 0.00 0.00 0.00 47 1015.1
20260905173506 32 226 12.9 20.9 0.00 0.00 0.00 47 1015.1
20260905173304 33 238 9.7 20.9 0.00 0.00 0.00 47 1015.1
20260905173105 33 173 8.0 14.5 0.00 0.00 0.00 47 1015.1
20260905172906 33 255 4.8 14.5 0.00 0.00 0.00 47 1015.0
20260905172703 33 175 4.8 14.5 0.00 0.00 0.00 47 1015.0
20260905172501 33 154 3.2 11.3 0.00 0.00 0.00 47 1015.1
20260905172308 33 227 6.4 11.3 0.00 0.00 0.00 47 1015.0
20260905172104 33 183 6.4 14.5 0.00 0.00 0.00 47 1015.0
20260905171905 33 161 1.6 14.5 0.00 0.00 0.00 47 1015.1
20260905171704 33 209 3.2 14.5 0.00 0.00 0.00 47 1015.1
20260905171515 33 206 3.2 14.5 0.00 0.00 0.00 47 1015.0
20260905171306 33 155 6.4 14.5 0.00 0.00 0.00 46 1015.1
20260905171104 33 94 3.2 14.5 0.00 0.00 0.00 46 1015.1
20260905170922 33 182 4.8 14.5 0.00 0.00 0.00 46 1015.0
20260905170707 33 250 6.4 14.5 0.00 0.00 0.00 46 1015.0
20260905170515 33 92 3.2 14.5 0.00 0.00 0.00 46 1015.0
20260905170301 33 133 4.8 16.1 0.00 0.00 0.00 46 1015.0
20260905170110 34 210 8.0 16.1 0.00 0.00 0.00 45 1015.0
20260905165902 34 259 6.4 16.1 0.00 0.00 0.00 45 1015.0
20260905165704 34 210 4.8 16.1 0.00 0.00 0.00 45 1014.9
20260905165507 34 235 6.4 16.1 0.00 0.00 0.00 45 1014.9
20260905165307 34 154 6.4 16.1 0.00 0.00 0.00 44 1014.9
20260905164922 35 231 3.2 14.5 0.00 0.00 0.00 44 1014.8
20260905164706 35 154 6.4 14.5 0.00 0.00 0.00 43 1014.9
20260905164503 35 137 6.4 14.5 0.00 0.00 0.00 43 1014.8
20260905164305 35 213 3.2 14.5 0.00 0.00 0.00 42 1014.8
20260905164105 35 90 4.8 11.3 0.00 0.00 0.00 41 1014.8
20260905163908 36 128 3.2 11.3 0.00 0.00 0.00 40 1014.8
20260905163702 36 69 3.2 11.3 0.00 0.00 0.00 38 1014.7
20260905163504 36 125 3.2 6.4 0.00 0.00 0.00 35 1014.8
20260905163304 36 134 0.0 3.2 0.00 0.00 0.00 35 1014.8
20260905163102 36 0 0.0 4.8 0.00 0.00 0.00 35 1014.8
20260905162910 36 0 0.0 4.8 0.00 0.00 0.00 36 1014.7
20260905162707 36 0 0.0 4.8 0.00 0.00 0.00 36 1014.6
20260905162503 35 0 0.0 6.4 0.00 0.00 0.00 35 1014.6
20260905162305 35 0 1.6 6.4 0.00 0.00 0.00 36 1014.6
20260905162103 35 0 3.2 6.4 0.00 0.00 0.00 36 1014.6
20260905161858 35 343 3.2 6.4 0.00 0.00 0.00 36 1014.7
20260905161658 35 4 3.2 6.4 0.00 0.00 0.00 36 1014.6
20260905161456 35 4 3.2 6.4 0.00 0.00 0.00 36 1014.6
20260905161252 35 348 3.2 9.7 0.00 0.00 0.00 36 1014.7
20260905161053 35 340 1.6 11.3 0.00 0.00 0.00 36 1014.6
20260905160857 35 333 3.2 11.3 0.00 0.00 0.00 35 1014.6
20260905160651 35 329 4.8 11.3 0.00 0.00 0.00 35 1014.5
20260905160451 35 1 6.4 11.3 0.00 0.00 0.00 35 1014.6
20260905160250 35 269 3.2 11.3 0.00 0.00 0.00 36 1014.6
20260905160118 35 289 1.6 11.3 0.00 0.00 0.00 36 1014.5
20260905155847 35 319 3.2 11.3 0.00 0.00 0.00 35 1014.5
20260905155646 35 228 1.6 11.3 0.00 0.00 0.00 35 1014.6
20260905155447 35 290 3.2 11.3 0.00 0.00 0.00 35 1014.6
20260905155249 35 282 6.4 11.3 0.00 0.00 0.00 35 1014.6
20260905155049 35 309 4.8 11.3 0.00 0.00 0.00 35 1014.6
20260905154846 35 316 1.6 16.1 0.00 0.00 0.00 35 1014.6
20260905154645 35 0 4.8 16.1 0.00 0.00 0.00 35 1014.6
20260905154445 35 0 3.2 16.1 0.00 0.00 0.00 35 1014.5
20260905154244 36 7 4.8 16.1 0.00 0.00 0.00 35 1014.5
20260905154046 36 24 8.0 16.1 0.00 0.00 0.00 35 1014.5
20260905153845 36 345 1.6 11.3 0.00 0.00 0.00 35 1014.5
20260905153646 36 227 3.2 14.5 0.00 0.00 0.00 35 1014.5
20260905153451 36 357 6.4 14.5 0.00 0.00 0.00 35 1014.6
20260905153249 36 293 3.2 14.5 0.00 0.00 0.00 35 1014.5
20260905153051 36 296 3.2 14.5 0.00 0.00 0.00 35 1014.5
20260905152844 36 8 8.0 14.5 0.00 0.00 0.00 35 1014.5
20260905152645 36 331 1.6 8.0 0.00 0.00 0.00 35 1014.5
20260905152444 36 27 0.0 9.7 0.00 0.00 0.00 35 1014.5
20260905152244 35 30 3.2 9.7 0.00 0.00 0.00 35 1014.4
20260905152048 36 0 4.8 11.3 0.00 0.00 0.00 35 1014.4
20260905151845 36 358 3.2 11.3 0.00 0.00 0.00 35 1014.4
20260905151642 36 313 4.8 11.3 0.00 0.00 0.00 35 1014.4
20260905151442 36 65 3.2 11.3 0.00 0.00 0.00 35 1014.5
20260905151246 36 293 8.0 11.3 0.00 0.00 0.00 35 1014.4
20260905151045 36 243 3.2 11.3 0.00 0.00 0.00 35 1014.5
20260905150844 36 326 1.6 11.3 0.00 0.00 0.00 35 1014.5
20260905150642 36 285 3.2 11.3 0.00 0.00 0.00 35 1014.5
20260905150441 36 251 6.4 11.3 0.00 0.00 0.00 34 1014.5
20260905150241 36 298 3.2 11.3 0.00 0.00 0.00 35 1014.4
20260905150048 36 0 4.8 11.3 0.00 0.00 0.00 35 1014.5
20260905145839 36 314 3.2 11.3 0.00 0.00 0.00 35 1014.4
20260905145639 36 285 6.4 11.3 0.00 0.00 0.00 35 1014.4
20260905145438 36 326 4.8 11.3 0.00 0.00 0.00 35 1014.5
20260905145237 36 314 6.4 11.3 0.00 0.00 0.00 35 1014.5
20260905145035 36 345 3.2 11.3 0.00 0.00 0.00 35 1014.6
20260905144844 36 310 6.4 11.3 0.00 0.00 0.00 35 1014.5
20260905144639 36 275 3.2 9.7 0.00 0.00 0.00 35 1014.7
20260905144438 36 330 3.2 9.7 0.00 0.00 0.00 35 1014.6
20260905144239 35 333 0.0 9.7 0.00 0.00 0.00 35 1014.6
20260905144035 35 333 1.6 9.7 0.00 0.00 0.00 35 1014.6
20260905143835 35 333 3.2 14.5 0.00 0.00 0.00 35 1014.6
20260905143632 35 306 4.8 14.5 0.00 0.00 0.00 35 1014.6
20260905143432 35 313 1.6 14.5 0.00 0.00 0.00 35 1014.7
20260905143230 35 282 3.2 14.5 0.00 0.00 0.00 35 1014.7
20260905143032 35 298 4.8 14.5 0.00 0.00 0.00 35 1014.7
20260905142831 35 341 6.4 14.5 0.00 0.00 0.00 35 1014.7
20260905142630 35 351 6.4 11.3 0.00 0.00 0.00 35 1014.8
20260905142430 35 292 4.8 11.3 0.00 0.00 0.00 35 1014.8
20260905142216 35 23 1.6 16.1 0.00 0.00 0.00 35 1014.7
20260905142020 35 27 1.6 16.1 0.00 0.00 0.00 35 1014.8
20260905141817 35 257 3.2 16.1 0.00 0.00 0.00 35 1014.8
20260905141613 35 309 3.2 16.1 0.00 0.00 0.00 35 1014.8
20260905141409 35 285 8.0 16.1 0.00 0.00 0.00 35 1014.9
20260905141208 35 0 8.0 14.5 0.00 0.00 0.00 35 1014.8
20260905141018 35 0 4.8 11.3 0.00 0.00 0.00 35 1014.8
20260905140807 35 8 8.0 11.3 0.00 0.00 0.00 35 1014.8
20260905140608 35 13 3.2 11.3 0.00 0.00 0.00 35 1014.8
20260905140408 35 320 1.6 11.3 0.00 0.00 0.00 35 1014.8
20260905140207 35 306 6.4 11.3 0.00 0.00 0.00 35 1014.9
20260905140038 35 123 3.2 8.0 0.00 0.00 0.00 35 1014.9
20260905135810 35 0 0.0 6.4 0.00 0.00 0.00 35 1014.9
20260905135605 35 0 1.6 9.7 0.00 0.00 0.00 35 1014.9
20260905135403 35 16 1.6 11.3 0.00 0.00 0.00 35 1014.9
20260905135210 35 321 1.6 11.3 0.00 0.00 0.00 35 1014.9
20260905135017 35 306 1.6 11.3 0.00 0.00 0.00 35 1015.0
20260905134804 35 333 3.2 11.3 0.00 0.00 0.00 35 1015.0
20260905134602 35 282 6.4 11.3 0.00 0.00 0.00 35 1015.0
20260905134407 35 290 3.2 14.5 0.00 0.00 0.00 35 1015.0
20260905134218 35 358 3.2 14.5 0.00 0.00 0.00 36 1014.9
20260905134015 35 7 3.2 14.5 0.00 0.00 0.00 36 1015.0
20260905133811 35 1 3.2 14.5 0.00 0.00 0.00 35 1015.1
20260905133604 35 307 8.0 14.5 0.00 0.00 0.00 35 1015.1
20260905133400 35 300 6.4 14.5 0.00 0.00 0.00 35 1015.1
20260905133203 35 298 1.6 16.1 0.00 0.00 0.00 35 1015.1
20260905132959 35 313 3.2 16.1 0.00 0.00 0.00 36 1015.2
20260905132801 35 264 6.4 16.1 0.00 0.00 0.00 36 1015.2
20260905132558 35 49 9.7 16.1 0.00 0.00 0.00 35 1015.3
20260905132357 35 190 8.0 16.1 0.00 0.00 0.00 35 1015.3
20260905132159 35 353 4.8 14.5 0.00 0.00 0.00 35 1015.3
20260905131956 35 247 0.0 14.5 0.00 0.00 0.00 35 1015.3
20260905131757 35 289 6.4 14.5 0.00 0.00 0.00 35 1015.3
20260905131557 35 348 4.8 11.3 0.00 0.00 0.00 35 1015.3
20260905131355 35 323 4.8 9.7 0.00 0.00 0.00 35 1015.4
20260905131155 35 341 3.2 9.7 0.00 0.00 0.00 35 1015.4
20260905130955 35 62 3.2 9.7 0.00 0.00 0.00 35 1015.3
20260905130754 35 350 4.8 9.7 0.00 0.00 0.00 35 1015.4
20260905130549 35 299 4.8 9.7 0.00 0.00 0.00 35 1015.4
20260905130348 35 345 3.2 16.1 0.00 0.00 0.00 35 1015.5
20260905130149 35 20 0.0 16.1 0.00 0.00 0.00 35 1015.4
20260905125950 35 47 1.6 16.1 0.00 0.00 0.00 35 1015.5
20260905125751 35 20 4.8 16.1 0.00 0.00 0.00 35 1015.4
20260905125547 35 0 6.4 16.1 0.00 0.00 0.00 35 1015.5
20260905125349 35 357 1.6 16.1 0.00 0.00 0.00 35 1015.5
20260905125154 34 354 0.0 17.7 0.00 0.00 0.00 35 1015.6
20260905124955 34 189 3.2 19.3 0.00 0.00 0.00 35 1015.6
20260905124756 34 296 3.2 19.3 0.00 0.00 0.00 35 1015.6
20260905124547 34 18 9.7 19.3 0.00 0.00 0.00 35 1015.6
20260905124345 34 0 11.3 19.3 0.00 0.00 0.00 35 1015.7
20260905124150 34 3 4.8 19.3 0.00 0.00 0.00 35 1015.7
20260905123944 34 0 3.2 14.5 0.00 0.00 0.00 35 1015.6
20260905123750 34 83 0.0 14.5 0.00 0.00 0.00 35 1015.7
20260905123547 33 310 4.8 14.5 0.00 0.00 0.00 36 1015.8
20260905123343 33 0 4.8 14.5 0.00 0.00 0.00 36 1015.7
20260905123144 33 289 6.4 14.5 0.00 0.00 0.00 36 1015.8
20260905122945 33 320 4.8 16.1 0.00 0.00 0.00 35 1015.7
20260905122749 33 355 6.4 16.1 0.00 0.00 0.00 36 1015.8
20260905122547 33 289 6.4 19.3 0.00 0.00 0.00 36 1015.8
20260905122343 33 312 8.0 19.3 0.00 0.00 0.00 35 1015.8
20260905122143 33 4 6.4 19.3 0.00 0.00 0.00 35 1016.0
20260905121944 33 275 1.6 19.3 0.00 0.00 0.00 35 1015.9
20260905121751 33 295 11.3 19.3 0.00 0.00 0.00 35 1015.9
20260905121549 33 323 8.0 17.7 0.00 0.00 0.00 35 1016.0
20260905121343 33 358 4.8 17.7 0.00 0.00 0.00 36 1015.9
20260905121144 33 286 6.4 17.7 0.00 0.00 0.00 35 1016.0
20260905120952 33 261 9.7 17.7 0.00 0.00 0.00 35 1016.0
20260905120753 33 298 9.7 19.3 0.00 0.00 0.00 35 1016.0
20260905120551 33 0 9.7 19.3 0.00 0.00 0.00 35 1016.1
20260905120346 33 0 9.7 19.3 0.00 0.00 0.00 35 1016.1
20260905120143 33 351 11.3 19.3 0.00 0.00 0.00 35 1016.0
20260905115945 33 0 12.9 19.3 0.00 0.00 0.00 35 1016.0
20260905115746 33 0 3.2 14.5 0.00 0.00 0.00 35 1016.0
20260905115547 33 276 4.8 17.7 0.00 0.00 0.00 35 1016.1
20260905115344 33 329 4.8 17.7 0.00 0.00 0.00 36 1016.1
20260905115144 33 278 3.2 17.7 0.00 0.00 0.00 35 1016.1
20260905114944 33 269 6.4 17.7 0.00 0.00 0.00 35 1016.2
20260905114746 33 17 9.7 17.7 0.00 0.00 0.00 34 1016.1
20260905114547 33 343 8.0 17.7 0.00 0.00 0.00 35 1016.2
20260905114345 33 276 3.2 16.1 0.00 0.00 0.00 35 1016.2
20260905114145 33 255 6.4 19.3 0.00 0.00 0.00 35 1016.2
20260905113943 33 18 6.4 19.3 0.00 0.00 0.00 35 1016.1
20260905113746 33 59 4.8 19.3 0.00 0.00 0.00 35 1016.1
20260905113547 32 357 6.4 19.3 0.00 0.00 0.00 35 1016.1
20260905113347 33 0 9.7 19.3 0.00 0.00 0.00 35 1016.1
20260905113147 33 0 11.3 17.7 0.00 0.00 0.00 34 1016.1
20260905112948 33 345 6.4 17.7 0.00 0.00 0.00 34 1016.1
20260905112752 32 0 8.0 17.7 0.00 0.00 0.00 34 1016.1
20260905112551 32 10 9.7 17.7 0.00 0.00 0.00 34 1016.1
20260905112345 32 358 8.0 11.3 0.00 0.00 0.00 33 1016.0
20260905112145 32 0 1.6 16.1 0.00 0.00 0.00 34 1016.0
20260905111944 32 319 4.8 16.1 0.00 0.00 0.00 34 1016.1
20260905111747 32 3 6.4 16.1 0.00 0.00 0.00 33 1016.1
20260905111552 32 343 1.6 16.1 0.00 0.00 0.00 34 1016.2
20260905111344 32 0 6.4 16.1 0.00 0.00 0.00 34 1016.3
20260905111146 32 357 8.0 14.5 0.00 0.00 0.00 34 1016.2
20260905110943 32 337 9.7 14.5 0.00 0.00 0.00 35 1016.2
20260905110746 32 0 3.2 11.3 0.00 0.00 0.00 35 1016.3
20260905110548 32 353 6.4 11.3 0.00 0.00 0.00 34 1016.3
20260905110343 32 0 6.4 11.3 0.00 0.00 0.00 35 1016.3
20260905110148 32 292 3.2 11.3 0.00 0.00 0.00 35 1016.4
20260905105946 32 14 0.0 11.3 0.00 0.00 0.00 36 1016.3
20260905105747 32 216 0.0 11.3 0.00 0.00 0.00 36 1016.3
20260905105548 32 264 3.2 11.3 0.00 0.00 0.00 35 1016.3
20260905105343 32 298 4.8 11.3 0.00 0.00 0.00 36 1016.3
20260905105145 32 296 4.8 11.3 0.00 0.00 0.00 36 1016.3
20260905104945 32 345 0.0 6.4 0.00 0.00 0.00 37 1016.3
20260905104752 32 66 1.6 8.0 0.00 0.00 0.00 37 1016.3
20260905104552 32 23 3.2 8.0 0.00 0.00 0.00 37 1016.3
20260905104345 32 317 0.0 9.7 0.00 0.00 0.00 37 1016.3
20260905104145 32 216 1.6 9.7 0.00 0.00 0.00 37 1016.3